Regional Weather Roundup
Issued by NWS

Home | Current Version | Previous Version | Text Only | Print | Product List | Glossary On
Versions: 1 2 3 4 5 6 7 8 9 10 11 12 13 14 15 16 17 18 19 20 21 22 23 24 25 26 27 28 29 30 31 32 33 34 35 36 37 38 39 40 41 42 43 44 45 46 47 48 49 50
391
ASUS43 KMPX 221201
RWRMN
WEATHER ROUNDUP FOR MINNESOTA
NATIONAL WEATHER SERVICE TWIN CITIES/CHANHASSEN MN
600 AM CST WED NOV 22 2017


NOTE: "FAIR" INDICATES FEW OR NO CLOUDS BELOW 12,000 FEET WITH NO
SIGNIFICANT WEATHER AND/OR OBSTRUCTIONS TO VISIBILITY. N/A MEANS
CURRENT SKY AND/OR WEATHER CONDITIONS ARE NOT AVAILABLE.

MNZ060>063-068>070-221300-
   Twin Cities Metro

CITY           SKY/WX    TMP DP  RH WIND       PRES   REMARKS
TWIN CITIES    CLOUDY    16  11  80 SW5       30.33S WCI   9
6HR MIN TEMP:  15; 6HR MAX TEMP:  19;

ST PAUL        CLOUDY    16  10  77 CALM      30.35S
CRYSTAL        CLOUDY    13   7  77 CALM      30.32R
BLAINE         CLOUDY    14  10  85 CALM      30.31S
LAKEVILLE      CLOUDY     9   9 100 CALM      30.32F
EDEN PRAIRIE   CLOUDY    15  10  80 SW3       30.32S
6HR MIN TEMP:  14; 6HR MAX TEMP:  19;

SOUTH ST PAUL  CLOUDY    15  10  82 CALM      30.33S
LAKE ELMO      FAIR      14  10  85 CALM      30.33S
$$
MNZ001>005-007-008-013>017-022>024-027-028-221300-
   Northwest Minnesota

CITY           SKY/WX    TMP DP  RH WIND       PRES   REMARKS
BEMIDJI        CLOUDY     7   4  88 S5        30.19F WCI  -2
HALLOCK        CLOUDY     7   3  85 S10       30.16F WCI  -8
ROSEAU         CLOUDY     9   5  85 S6        30.15F WCI  -1
WARROAD        CLOUDY     9   3  78 S5        30.16F WCI   0
CROOKSTON      PTCLDY     9   7  92 SW6       30.22F WCI  -1
FOSSTON        CLOUDY     7   3  85 S8        30.19F WCI  -6
DETROIT LAKES  CLOUDY    12   9  85 S5        30.22F WCI   4
MOORHEAD       PTCLDY     9   3  78 S8        30.24F WCI  -4
PARK RAPIDS    CLOUDY     7   3  84 SW3       30.21F
MAHNOMEN       FAIR       8   5  86 S8        30.21F WCI  -4
$$
MNZ006-009>011-018-025>026-221300-
   North Central Minnesota

CITY           SKY/WX    TMP DP  RH WIND       PRES   REMARKS
BAUDETTE       PTCLDY     5   2  87 SW6       30.17R WCI  -6
FLAG ISLAND    CLOUDY     9   5  85 SW7       30.14F WCI  -3
INTL FALLS       N/A      3  -2  79 SW3       30.18S
6HR MIN TEMP:   1; 6HR MAX TEMP:   9;

WASKISH        CLOUDY     9   7  92 SW3       30.20R
BIG FORK       CLOUDY     3   0  85 CALM      30.20R
LONGVILLE      CLEAR      7   3  85 S3        30.22F
GRAND RAPIDS   CLEAR      8   5  87 SW5       30.23F WCI   0
CRANE LAKE     CLOUDY     3   1  92 CALM      30.22R
ORR            CLOUDY     3   0  85 CALM      30.16S
COOK           CLOUDY     3   0  85 CALM      30.20S
WALKER         FAIR       7   4  89 SW3       30.22R
$$
MNZ012-019>021-037-221300-
   Northeast Minnesota

CITY           SKY/WX    TMP DP  RH WIND       PRES   REMARKS
DULUTH         CLOUDY     8   6  92 W5        30.22S WCI   0
6HR MIN TEMP:   8; 6HR MAX TEMP:  15; 6HR PCP: TRACE;

ELY            FLURRIES   7   5  92 SW6       30.18F WCI  -3
HIBBING        CLOUDY     3   0  87 S3        30.20F
EVELETH        CLOUDY     3   0  85 CALM      30.21F
DULUTH HARBOR  CLOUDY    18  12  79 SW5       30.30S WCI  11
TWO HARBORS    CLOUDY     9   3  78 CALM      30.23S
SILVER BAY     CLOUDY     9   7  92 CALM      30.21F
GRAND MARAIS     N/A     18  11  74 CALM      30.23S
G MARAIS ARPRT CLEAR      9   3  78 CALM      30.13F
$$
MNZ029>031-032-039>041-046>048-054>057-064-221300-
   West Central Minnesota

CITY           SKY/WX    TMP DP  RH WIND       PRES   REMARKS
FERGUS FALLS   CLOUDY     9   7  92 S6        30.30S WCI  -1
WHEATON        CLOUDY    12   7  79 S8        30.29F WCI   1
MORRIS         CLOUDY     9   7  92 S6        30.27S WCI  -1
ALEXANDRIA     CLOUDY    11   7  84 SW3       30.26S
ELBOW LAKE     FAIR       7   5  89 S7        30.27S WCI  -4
WADENA         CLOUDY     9   7  92 SW5       30.24R WCI   0
GLENWOOD       CLOUDY     9   7  92 CALM      30.27S
APPLETON       CLOUDY    10   7  85 CALM      30.30R
BENSON         CLOUDY     9   7  92 CALM      30.30S
ORTONVILLE     CLOUDY    10   7  85 MISG      30.27F
MADISON        CLOUDY    10   7  85 S3        30.30S
WILLMAR        FAIR       9   7  92 SE3       30.30F
$$
MNZ033>034-036-042>043-049>051-058-059-221300-
   Central Minnesota

CITY           SKY/WX    TMP DP  RH WIND       PRES   REMARKS
ST CLOUD       CLOUDY    11   9  92 S3        30.29F
6HR MIN TEMP:  10; 6HR MAX TEMP:  14;

SAUK CENTRE    FAIR       9   7  90 CALM      30.27F
PAYNESVILLE    CLOUDY     9   8  95 CALM      30.29F
AITKIN         CLOUDY     9   7  92 CALM      30.24F
PINE RIVER     CLOUDY     5   1  85 CALM      30.26F
BRAINERD       CLOUDY     9   6  88 S5        30.25F WCI   1
STAPLES        CLOUDY     7   5  92 CALM      30.24F
LITTLE FALLS   CLOUDY    10   5  79 CALM      30.28F
LITCHFIELD     CLOUDY    12  10  92 CALM      30.30F
BUFFALO        CLOUDY    13  10  86 CALM      30.33S
MAPLE LAKE     CLOUDY    13  11  92 CALM      30.32S
HUTCHINSON     PTCLDY    10   8  90 CALM      30.32S
$$
MNZ037-044-045-052-053-221300-
   East Central Minnesota

CITY           SKY/WX    TMP DP  RH WIND       PRES   REMARKS
PRINCETON      CLOUDY     9   5  85 CALM      30.30S
MORA           CLOUDY    12   9  85 SW3       30.31S
CAMBRIDGE      CLOUDY    12   7  79 CALM      30.31F
RUSH CITY      CLOUDY    12   9  85 SW3       30.30F
MOOSE LAKE     CLOUDY    10   7  85 CALM      30.25F
HINCKLEY       FAIR      12  10  92 CALM      30.28F
CLOQUET        CLOUDY    10   7  85 SW3       30.24F
MCGREGOR       CLOUDY    10   9  92 CALM      30.26S
$$
MNZ071>073-080-081-089-090-097-098-221300-
   Southwest Minnesota

CITY           SKY/WX    TMP DP  RH WIND       PRES   REMARKS
MONTEVIDEO     CLOUDY     9   7  92 CALM      30.31R
GRANITE FALLS  CLOUDY     8   5  86 S6        30.33S WCI  -2
CANBY          CLOUDY    15  10  79 S6        30.29F WCI   6
MARSHALL       CLOUDY    11   6  81 S7        30.30F WCI   0
REDWOOD FALLS  CLOUDY    10   5  80 SW6       30.31F WCI   0
OLIVIA         CLOUDY    10   9  92 CALM      30.30F
PIPESTONE      CLOUDY     9   3  78 S5        30.26F WCI   0
WINDOM           N/A     12   0  57 S5        30.30S WCI   4
WORTHINGTON    CLOUDY    11   6  81 S7        30.29F WCI   0
JACKSON        CLOUDY    10   9  92 CALM      30.30F
SLAYTON        CLOUDY    10 -17  28 S7        30.29F WCI  -1
$$
MNZ065>067-074>077-082>085-091>093-221300-
   South Central Minnesota

CITY           SKY/WX    TMP DP  RH WIND       PRES   REMARKS
MANKATO        CLOUDY    12   9  87 SW3       30.33F
NEW ULM        CLOUDY     9   3  78 CALM      30.32F
ST JAMES       CLOUDY    10   7  85 CALM      30.32F
FAIRMONT       CLOUDY    11   8  88 SW3       30.33F
GLENCOE        CLOUDY    13  11  90 CALM      30.32S
FARIBAULT      CLOUDY    12   9  85 CALM      30.33R
OWATONNA       CLOUDY     9   7  92 CALM      30.31F
WASECA         CLOUDY    12  10  92 CALM      30.34S
ALBERT LEA     CLOUDY    12   9  85 CALM      30.31S
$$
MNZ078>079-086>088-094>096-221300-
   Southeast Minnesota

CITY           SKY/WX    TMP DP  RH WIND       PRES   REMARKS
ROCHESTER      CLOUDY    12  10  92 W5        30.30F WCI   4
6HR MIN TEMP:  11; 6HR MAX TEMP:  16;

RED WING       CLOUDY    12   9  85 N3        30.33S
STANTON        CLOUDY    12   8  84 CALM      30.33R
DODGE CENTER   CLOUDY    10   7  85 CALM      30.29F
WINONA         CLOUDY    18  10  73 CALM      30.35F
AUSTIN         CLOUDY    12  10  92 CALM      30.31F
PRESTON          N/A     12   9  86 CALM      30.31S
$$
ABBREVIATIONS USED IN REMARKS
   TC - TEMPERATURES IN CELSIUS
  WCI - WIND CHILL INDEX
   HX - HEAT INDEX
  VSB - VISIBILITY
$$




USA.gov is the U.S. government's official web portal to all federal, state and local government web resources and services.